Fox Island, WA

11:53 AM PDT on September 25, 2016 (GMT -0700)
Tacoma Narrows

Weather History for KTIW - April, 2013

Change the Weather History Date:

Monday, April 22, 2013

  Actual Average Record
Temperature  
Mean Temperature 50 °F -  
Max Temperature 59 °F 57 °F 73 °F (2005)
Min Temperature 42 °F 42 °F 37 °F (1999)
Degree Days  
Heating Degree Days 14    
Moisture  
Dew Point 31 °F    
Average Humidity 55    
Maximum Humidity 87    
Minimum Humidity 19    
Precipitation  
Precipitation 0.00 in - - ()
Sea Level Pressure  
Sea Level Pressure 30.47 in    
Wind  
Wind Speed 7 mph (NNE)    
Max Wind Speed 18 mph    
Max Gust Speed 22 mph    
Visibility 10 miles    
Events      
Averages and records for this station are not official NWS values.
T = Trace of Precipitation, MM = Missing Value Source: NWS Daily Summary

Daily Weather History Graph

Daily Weather History Graph

Search for Another Location

Airport or City:

Trip Planner

Search our weather history database for the weather conditions in past years. The results will help you decide how hot, cold, wet, or windy it might be!

Date:

Astronomy

Apr. 22, 2013 Rise Set
Actual Time 6:08 AM PDT 8:09 PM PDT
Civil Twilight 5:35 AM PDT 8:42 PM PDT
Nautical Twilight 4:55 AM PDT 9:23 PM PDT
Astronomical Twilight 4:10 AM PDT 10:09 PM PDT
Moon 4:53 PM PDT (4/22) 4:19 AM PDT (4/22)
Length of Visible Light 15h 06m
Length of Day
14h 01m
Waxing Gibbous, 88% of the Moon is Illuminated
Apr 22
Waxing Gibbous
Apr 25
Full
May 2
Last Quarter
May 9
New
May 17
First Quarter

Hourly Weather History & Observations

Time (PDT) Temp. Windchill Dew Point Humidity Pressure Visibility Wind Dir Wind Speed Gust Speed Precip Events Conditions
12:53 AM 44.1 °F 41.5 °F 37.0 °F 76% 30.39 in 10.0 mi NNE 4.6 mph - N/A   Clear
1:53 AM 44.1 °F 41.5 °F 36.0 °F 73% 30.41 in 10.0 mi NE 4.6 mph - N/A   Clear
2:53 AM 43.0 °F - 35.1 °F 74% 30.42 in 10.0 mi Calm Calm - N/A   Clear
3:53 AM 43.0 °F - 36.0 °F 76% 30.44 in 10.0 mi Calm Calm - N/A   Clear
4:53 AM 42.1 °F 40.2 °F 37.0 °F 82% 30.45 in 10.0 mi NE 3.5 mph - N/A   Clear
5:53 AM 42.1 °F 39.2 °F 37.9 °F 85% 30.47 in 10.0 mi NNE 4.6 mph - N/A   Clear
6:53 AM 43.0 °F 41.3 °F 39.0 °F 86% 30.48 in 10.0 mi NNE 3.5 mph - N/A   Clear
7:19 AM 42.8 °F 41.1 °F 39.2 °F 87% 30.49 in 10.0 mi Variable 3.5 mph - N/A   Mostly Cloudy
7:53 AM 43.0 °F 38.2 °F 39.0 °F 86% 30.50 in 10.0 mi NNE 8.1 mph - N/A   Mostly Cloudy
8:53 AM 46.0 °F 42.5 °F 39.0 °F 76% 30.51 in 10.0 mi North 6.9 mph - N/A   Scattered Clouds
9:53 AM 48.0 °F - 37.9 °F 68% 30.51 in 10.0 mi NNE 10.4 mph - N/A   Partly Cloudy
10:53 AM 50.0 °F - 37.0 °F 61% 30.53 in 10.0 mi North 10.4 mph - N/A   Scattered Clouds
11:53 AM 53.1 °F - 34.0 °F 48% 30.52 in 10.0 mi North 12.7 mph 17.3 mph N/A   Scattered Clouds
12:53 PM 54.0 °F - 33.1 °F 45% 30.51 in 10.0 mi North 18.4 mph - N/A   Clear
1:53 PM 57.0 °F - 28.0 °F 33% 30.49 in 10.0 mi North 12.7 mph 20.7 mph N/A   Clear
2:53 PM 57.9 °F - 21.9 °F 25% 30.48 in 10.0 mi North 16.1 mph - N/A   Clear
3:53 PM 57.9 °F - 19.9 °F 23% 30.47 in 10.0 mi North 15.0 mph 21.9 mph N/A   Partly Cloudy
4:53 PM 59.0 °F - 16.0 °F 19% 30.45 in 10.0 mi North 11.5 mph - N/A   Clear
5:53 PM 57.9 °F - 21.0 °F 24% 30.45 in 10.0 mi North 11.5 mph 18.4 mph N/A   Clear
6:53 PM 55.9 °F - 21.9 °F 27% 30.45 in 10.0 mi North 13.8 mph - N/A   Clear
7:53 PM 54.0 °F - 26.1 °F 34% 30.44 in 10.0 mi North 11.5 mph - N/A   Clear
8:53 PM 51.1 °F - 26.1 °F 38% 30.45 in 10.0 mi NNE 8.1 mph - N/A   Clear
9:53 PM 50.0 °F - 30.9 °F 48% 30.45 in 10.0 mi NNE 3.5 mph - N/A   Clear
10:53 PM 50.0 °F - 26.1 °F 39% 30.45 in 10.0 mi North 8.1 mph - N/A   Clear
11:53 PM 48.9 °F - 25.0 °F 39% 30.43 in 10.0 mi NE 4.6 mph - N/A   Clear